User: anonymous   Login
Location: Roland
(31.1349°N, 85.4372°W)
Time: 19:40:04
(UTC+00:00)
Language:

SR - Orbit

View from above orbital plane
View from above orbital plane
View from above satellite
View from above satellite

Ground track
Ground track

The orbit data is extracted from the following two-line orbital elements,

1    46U 60007B   21109.02623928  .00000060  00000-0  34681-4 0  9990
2    46  66.6894 300.8024 0217579 263.6780  93.9509 14.49387617183389
Epoch (UTC): 19 April 2021 00:37:47
Eccentricity: 0.0217579
inclination: 66.6894°
perigee height: 573 km
apogee height: 882 km
right ascension of ascending node: 300.8024°
argument of perigee: 263.6780°
revolutions per day: 14.49387617
mean anomaly at epoch: 93.9509°
orbit number at epoch: 18338

The dashed part of the orbit path shows where the satellite is in the earth's shadow,  

DLR